Regional Weather Roundup
Issued by NWS

Home | Current Version | Previous Version | Graphics & Text | Print | Product List | Glossary Off
Versions: 1 2 3 4 5 6 7 8 9 10 11 12 13 14 15 16 17 18 19 20 21 22 23 24 25 26 27 28 29 30 31 32 33 34 35 36 37 38 39 40 41 42 43 44 45 46 47 48 49 50

000
ASUS45 KSLC 281310
RWRUT

UTAH REGIONAL WEATHER ROUNDUP
NATIONAL WEATHER SERVICE SALT LAKE CITY UT
600 AM MST TUE FEB 28 2017

UTZ001>011-023>025-281400-

NORTHERN UTAH

CITY           SKY/WX    TMP DP  RH WIND       PRES   REMARKS
BRIGHAM CITY     N/A     20  15  80 CALM      29.84S
HILL AFB       CLOUDY    21  14  73 E12       29.81R WCI   9
LOGAN          HAZE       4  -1  80 MISG      29.84R VSB 3/4
OGDEN          CLOUDY    21  15  78 S10       29.82R WCI  10
SALT LAKE CITY PTCLDY    23  17  78 SE10      29.84R WCI  12
TOOELE VALLEY  CLEAR     18  14  86 SE10      29.84S WCI   6
WENDOVER       PTCLDY    25  14  63 CALM      29.84R
HEBER CITY     CLOUDY    10   7  85 E5        29.81S WCI   2
WEST JORDAN    PTCLDY    22  18  85 S7        29.84R WCI  13

$$

UTZ011>015-024>027-281400-

CENTRAL/NORTHEAST UTAH

CITY           SKY/WX    TMP DP  RH WIND       PRES   REMARKS
PROVO AIRPORT  PTCLDY    18  15  88 SE3       29.86S
MOAB/CANYONLAN CLOUDY    35  16  45 NW5       29.72R WCI  31
DELTA          CLOUDY    10   9  92 NE5       29.84R VSB<1/4 WCI   2
PRICE          MOCLDY    26   9  48 N12       29.74R WCI  16
ROOSEVELT      CLOUDY    21  12  68 W5        29.81R WCI  15
VERNAL         CLOUDY    25  17  72 NE8       29.78R WCI  16

$$

UTZ013>016-019>022-027-281400-

SOUTHERN UTAH

CITY           SKY/WX    TMP DP  RH WIND       PRES   REMARKS
BRYCE CANYON   PTCLDY    19  15  84 NW12      29.73R WCI   7
CEDAR CITY     FLURRIES  25  22  88 CALM      29.80R
MILFORD        MOCLDY    19  16  88 W6        29.82R WCI  11
ST GEORGE      SUNNY     40  33  76 CALM      29.82R
HANKSVILLE     CLOUDY    32  27  80 CALM      29.77R
BLANDING       CLOUDY    32  32 100 S8        29.79S VSB 1/4 WCI  24

$$

REGIONAL REPORTS     COLORADO/ARIZONA

CITY           SKY/WX    TMP DP  RH WIND       PRES   REMARKS
CRAIG, CO      CLOUDY    15  10  80 SW5       29.76F WCI   8
GRAND JUNCTION LGT SNOW  28  28 100 CALM      29.74R FOG
RIFLE, CO      LGT SNOW  27  25  92 S3        29.75S VSB 1
MONTROSE, CO   CLOUDY    30  30 100 NW10      29.72R WCI  21
CORTEZ, CO     LGT SNOW  32  32 100 S3        29.75S FOG
COLORADO CITY  CLOUDY    34  34 100 CALM      29.81R
PAGE, AZ       CLOUDY    41  31  67 NW8       29.74R
GRAND CANYON   CLOUDY    30  30 100 W7        29.79R FOG     WCI  23
KINGMAN, AZ    CLOUDY    44  36  73 W8        29.82R
FLAGSTAFF, AZ  SNOW      30  29  96 SW9       29.78R VSB 1/2 WCI  22

$$

REGIONAL REPORTS    NEVADA/IDAHO/WYOMING

CITY           SKY/WX    TMP DP  RH WIND       PRES   REMARKS
LAS VEGAS, NV  CLOUDY    48  30  49 NW6       29.82R
ELY, NY        PTCLDY    -1  -5  82 S10       29.83R WCI -17
ELKO, NV       CLOUDY    20  12  71 CALM      29.84R
POCATELLO, ID  CLOUDY    25  11  55 SW15      29.77S WCI  13
BURLEY, ID     CLOUDY    26  20  77 SW9       29.79S WCI  17
FORT BRIDGER,    N/A      8   5  91 SW9       29.75R WCI  -6
EVANSTON, WY   CLOUDY     9   4  80 SW7       29.72R WCI  -2
ROCK SPRINGS,  CLOUDY     6   2  83 SW10      29.73R WCI  -9
KEMMERER, WY   FLURRIES N/A N/A N/A N3        29.70S

$$



USA.gov is the U.S. government's official web portal to all federal, state and local government web resources and services.